Multibeam Report for AT26-01


Ship Name: Atlantis
Chief Scientist: None
Source Organization: UNOLS R2R
Start Date: 2013-05-25
End Date: 2013-06-20


View ISO Metadata

Visit the full NCEI Bathymetry Viewer


Multibeam Bathymetry

Cruise Details

Project: Transit
Instrument: Kongsberg EM122

Data Quality

Number of Files: 100
Number of Records: 67168
BATHYMETRY DATA Quantity Percentage
Number of Beams 29009664 100%
Number of Good Beams 26457452 91.2%
Number of Zero Beams 0 0%
Number of Flagged Beams 2552212 8.8%

Navigation Totals

Total Time: 88.0106 hours
Total Track Length: 1801.7999 km
Average Speed: 20.473 km/hr (11.0545 knots)

Cruise Bounds

Northern Extent: 43.966125
Southern Extent: 27.001068
Western Extent: -124.9996
Eastern Extent: -71.11378

Limits

Minimum Sonar Depth 2.2916 Maximum Sonar Depth 9.1992
Minimum Altitude 130.1081 Maximum Altitude 10400.7344
Minimum Depth 132.4425 Maximum Depth 10406.3848

File Information

Full Resolution Bathymetry as collected (raw): 98

Files File Size Description
0000_20130526_124429_Atlantis.all.mb58.gz 16.03MB Kongsberg multibeam vendor format
0001_20130526_132205_Atlantis.all.mb58.gz 14.97MB Kongsberg multibeam vendor format
0002_20130526_140028_Atlantis.all.mb58.gz 44.02MB Kongsberg multibeam vendor format
0003_20130526_160013_Atlantis.all.mb58.gz 17.28MB Kongsberg multibeam vendor format
0004_20130526_165247_Atlantis.all.mb58.gz 41.37MB Kongsberg multibeam vendor format
0005_20130526_185256_Atlantis.all.mb58.gz 40.17MB Kongsberg multibeam vendor format
0006_20130526_205246_Atlantis.all.mb58.gz 39.83MB Kongsberg multibeam vendor format
0007_20130526_225232_Atlantis.all.mb58.gz 13.98MB Kongsberg multibeam vendor format
0008_20130526_233425_Atlantis.all.mb58.gz 39.20MB Kongsberg multibeam vendor format
0009_20130527_013401_Atlantis.all.mb58.gz 39.67MB Kongsberg multibeam vendor format
0010_20130527_033404_Atlantis.all.mb58.gz 38.27MB Kongsberg multibeam vendor format
0011_20130527_053357_Atlantis.all.mb58.gz 41.64MB Kongsberg multibeam vendor format
0012_20130527_073402_Atlantis.all.mb58.gz 39.18MB Kongsberg multibeam vendor format
0013_20130527_093401_Atlantis.all.mb58.gz 24.01MB Kongsberg multibeam vendor format
0014_20130527_105618_Atlantis.all.mb58.gz 34.48MB Kongsberg multibeam vendor format
0015_20130527_125612_Atlantis.all.mb58.gz 35.02MB Kongsberg multibeam vendor format
0016_20130527_145608_Atlantis.all.mb58.gz 36.75MB Kongsberg multibeam vendor format
0017_20130527_165553_Atlantis.all.mb58.gz 37.90MB Kongsberg multibeam vendor format
0018_20130527_185607_Atlantis.all.mb58.gz 37.15MB Kongsberg multibeam vendor format
0019_20130527_205609_Atlantis.all.mb58.gz 36.14MB Kongsberg multibeam vendor format
0020_20130527_225558_Atlantis.all.mb58.gz 35.19MB Kongsberg multibeam vendor format
0021_20130528_005603_Atlantis.all.mb58.gz 34.87MB Kongsberg multibeam vendor format
0022_20130528_025559_Atlantis.all.mb58.gz 34.94MB Kongsberg multibeam vendor format
0023_20130528_045559_Atlantis.all.mb58.gz 35.51MB Kongsberg multibeam vendor format
0024_20130528_065601_Atlantis.all.mb58.gz 34.82MB Kongsberg multibeam vendor format
0025_20130528_085606_Atlantis.all.mb58.gz 35.03MB Kongsberg multibeam vendor format
0026_20130528_105604_Atlantis.all.mb58.gz 23.93MB Kongsberg multibeam vendor format
0027_20130528_121411_Atlantis.all.mb58.gz 37.40MB Kongsberg multibeam vendor format
0028_20130528_141349_Atlantis.all.mb58.gz 36.47MB Kongsberg multibeam vendor format
0029_20130528_161343_Atlantis.all.mb58.gz 23.05MB Kongsberg multibeam vendor format
0030_20130528_173604_Atlantis.all.mb58.gz 296.1KB Kongsberg multibeam vendor format
0031_20130528_173702_Atlantis.all.mb58.gz 36.07MB Kongsberg multibeam vendor format
0032_20130528_193652_Atlantis.all.mb58.gz 29.44MB Kongsberg multibeam vendor format
0033_20130528_211556_Atlantis.all.mb58.gz 14.76MB Kongsberg multibeam vendor format
0043_20130613_182707_Atlantis.all.mb58.gz 37.47MB Kongsberg multibeam vendor format
0044_20130613_191825_Atlantis.all.mb58.gz 3.09MB Kongsberg multibeam vendor format
0045_20130613_192256_Atlantis.all.mb58.gz 14.69MB Kongsberg multibeam vendor format
0046_20130613_194512_Atlantis.all.mb58.gz 28.16MB Kongsberg multibeam vendor format
0047_20130613_203248_Atlantis.all.mb58.gz 5.60MB Kongsberg multibeam vendor format
0048_20130613_204018_Atlantis.all.mb58.gz 57.11MB Kongsberg multibeam vendor format
0049_20130613_215711_Atlantis.all.mb58.gz 29.29MB Kongsberg multibeam vendor format
0050_20130613_223655_Atlantis.all.mb58.gz 17.07MB Kongsberg multibeam vendor format
0051_20130613_230232_Atlantis.all.mb58.gz 51.81MB Kongsberg multibeam vendor format
0052_20130614_000342_Atlantis.all.mb58.gz 28.67MB Kongsberg multibeam vendor format
0053_20130614_004259_Atlantis.all.mb58.gz 24.18MB Kongsberg multibeam vendor format
0054_20130614_011844_Atlantis.all.mb58.gz 6.74MB Kongsberg multibeam vendor format
0055_20130614_012853_Atlantis.all.mb58.gz 86.60MB Kongsberg multibeam vendor format
0056_20130614_032841_Atlantis.all.mb58.gz 16.91MB Kongsberg multibeam vendor format
0057_20130614_035133_Atlantis.all.mb58.gz 12.12MB Kongsberg multibeam vendor format
0058_20130614_041052_Atlantis.all.mb58.gz 51.24MB Kongsberg multibeam vendor format
0059_20130614_061043_Atlantis.all.mb58.gz 39.49MB Kongsberg multibeam vendor format
0060_20130614_080541_Atlantis.all.mb58.gz 13.80MB Kongsberg multibeam vendor format
0061_20130614_084806_Atlantis.all.mb58.gz 5.61MB Kongsberg multibeam vendor format
0062_20130614_090214_Atlantis.all.mb58.gz 15.91MB Kongsberg multibeam vendor format
0063_20130614_094040_Atlantis.all.mb58.gz 48.28MB Kongsberg multibeam vendor format
0064_20130614_114020_Atlantis.all.mb58.gz 7.09MB Kongsberg multibeam vendor format
0065_20130614_115803_Atlantis.all.mb58.gz 27.11MB Kongsberg multibeam vendor format
0066_20130614_130426_Atlantis.all.mb58.gz 2.06MB Kongsberg multibeam vendor format
0067_20130614_130913_Atlantis.all.mb58.gz 19.40MB Kongsberg multibeam vendor format
0068_20130614_135719_Atlantis.all.mb58.gz 17.10MB Kongsberg multibeam vendor format
0069_20130614_144704_Atlantis.all.mb58.gz 0.52MB Kongsberg multibeam vendor format
0070_20130614_144824_Atlantis.all.mb58.gz 1.15MB Kongsberg multibeam vendor format
0071_20130614_155314_Atlantis.all.mb58.gz 14.29MB Kongsberg multibeam vendor format
0072_20130614_162905_Atlantis.all.mb58.gz 10.72MB Kongsberg multibeam vendor format
0073_20130614_165650_Atlantis.all.mb58.gz 9.08MB Kongsberg multibeam vendor format
0074_20130614_171939_Atlantis.all.mb58.gz 2.99MB Kongsberg multibeam vendor format
0075_20130615_150123_Atlantis.all.mb58.gz 3.30MB Kongsberg multibeam vendor format
0076_20130615_151609_Atlantis.all.mb58.gz 6.51MB Kongsberg multibeam vendor format
0077_20130616_140511_Atlantis.all.mb58.gz 0.77MB Kongsberg multibeam vendor format
0078_20130616_153655_Atlantis.all.mb58.gz 318.0KB Kongsberg multibeam vendor format
0079_20130616_153718_Atlantis.all.mb58.gz 8.84MB Kongsberg multibeam vendor format
0080_20130616_154823_Atlantis.all.mb58.gz 7.18MB Kongsberg multibeam vendor format
0081_20130616_155718_Atlantis.all.mb58.gz 2.48MB Kongsberg multibeam vendor format
0082_20130616_160024_Atlantis.all.mb58.gz 2.34MB Kongsberg multibeam vendor format
0083_20130616_160319_Atlantis.all.mb58.gz 2.42MB Kongsberg multibeam vendor format
0084_20130616_160614_Atlantis.all.mb58.gz 2.61MB Kongsberg multibeam vendor format
0085_20130616_160922_Atlantis.all.mb58.gz 2.38MB Kongsberg multibeam vendor format
0086_20130616_161220_Atlantis.all.mb58.gz 3.41MB Kongsberg multibeam vendor format
0087_20130616_161650_Atlantis.all.mb58.gz 4.24MB Kongsberg multibeam vendor format
0088_20130616_162230_Atlantis.all.mb58.gz 5.83MB Kongsberg multibeam vendor format
0089_20130616_163040_Atlantis.all.mb58.gz 7.62MB Kongsberg multibeam vendor format
0090_20130616_164213_Atlantis.all.mb58.gz 49.44MB Kongsberg multibeam vendor format
0091_20130616_175519_Atlantis.all.mb58.gz 52.52MB Kongsberg multibeam vendor format
0092_20130616_190958_Atlantis.all.mb58.gz 23.37MB Kongsberg multibeam vendor format
0093_20130616_193654_Atlantis.all.mb58.gz 35.56MB Kongsberg multibeam vendor format
0094_20130616_201610_Atlantis.all.mb58.gz 46.92MB Kongsberg multibeam vendor format
0095_20130616_205622_Atlantis.all.mb58.gz 95.38MB Kongsberg multibeam vendor format
0096_20130616_221825_Atlantis.all.mb58.gz 38.11MB Kongsberg multibeam vendor format
0097_20130616_225319_Atlantis.all.mb58.gz 34.42MB Kongsberg multibeam vendor format
0098_20130616_232132_Atlantis.all.mb58.gz 11.37MB Kongsberg multibeam vendor format
0099_20130616_232923_Atlantis.all.mb58.gz 9.01MB Kongsberg multibeam vendor format
0100_20130616_233505_Atlantis.all.mb58.gz 20.32MB Kongsberg multibeam vendor format
0101_20130616_234617_Atlantis.all.mb58.gz 15.52MB Kongsberg multibeam vendor format
0102_20130616_235339_Atlantis.all.mb58.gz 35.59MB Kongsberg multibeam vendor format
0103_20130617_000721_Atlantis.all.mb58.gz 9.08MB Kongsberg multibeam vendor format
0104_20130617_001023_Atlantis.all.mb58.gz 12.84MB Kongsberg multibeam vendor format
0105_20130617_001434_Atlantis.all.mb58.gz 8.47MB Kongsberg multibeam vendor format
9999.all.mb58.gz 10.91MB Kongsberg multibeam vendor format

Metadata Files: 1

Files File Size Description
AT26-01_Multibeam.xml NGDC created ISO metadata

Water Column Sonar Data

Water Column Sonar Data Available: WCSD Map Viewer